User: anonymous   Login
Location: Esp�s Alto
(42.4476°N, 0.5876°E)
Time: 03:25:26
(UTC+00:00)
Language:

NOSS 3-4 (A) - Orbit

View from above orbital plane
View from above orbital plane
View from above satellite
View from above satellite

Ground track
Ground track

The orbit data is extracted from the following two-line orbital elements,

1 31701U 07027A   19336.76189113 0.00000000  00000-0  00000-0 0    09
2 31701  63.4055 311.6240 0266441  20.0292 339.9708 13.40790530    03
Epoch (UTC): 02 December 2019 18:17:07
Eccentricity: 0.0266441
inclination: 63.4055°
perigee height: 907 km
apogee height: 1306 km
right ascension of ascending node: 311.6240°
argument of perigee: 20.0292°
revolutions per day: 13.40790530
mean anomaly at epoch: 339.9708°
orbit number at epoch: 0

The dashed part of the orbit path shows where the satellite is in the earth's shadow,  

DLR